Regional Weather Roundup
Issued by NWS

Home | Current Version | Previous Version | Graphics & Text | Print | Product List | Glossary On
Versions: 1 2 3 4 5 6 7 8 9 10 11 12 13 14 15 16 17 18 19 20 21 22 23 24 25 26 27 28 29 30 31 32 33 34 35 36 37 38 39 40 41 42 43 44 45 46 47 48 49 50
000
ASUS43 KBIS 310801
RWRND

NORTH DAKOTA REGIONAL WEATHER ROUNDUP
NATIONAL WEATHER SERVICE BISMARCK ND
200 AM CST SAT JAN 31 2015

NOTE: "FAIR" INDICATES FEW OR NO CLOUDS BELOW 12,000 FEET WITH NO
SIGNIFICANT WEATHER AND/OR OBSTRUCTIONS TO VISIBILITY.


NDZ001>003-009>011-017-310900-
NORTHWEST NORTH DAKOTA

CITY           SKY/WX    TMP DP  RH WIND       PRES   REMARKS
WILLISTON      CLOUDY    23  20  88 E7        30.21R WCI  15
MINOT          CLOUDY    19  14  81 N13       30.23S WCI   6
MINOT AFB      CLOUDY    19  18  98 NE10      30.24S WCI   7
$$

NDZ018>021-031>035-040>046-310900-
SOUTHWEST NORTH DAKOTA

CITY           SKY/WX    TMP DP  RH WIND       PRES   REMARKS
BISMARCK       CLOUDY    24  23  96 NE13      30.20S WCI  12
DICKINSON      FOG       25  23  92 E12       30.11S VSB 1/2 WCI  14
GARRISON         N/A     22  19  89 NE8       30.19S WCI  12
HETTINGER ARPT CLEAR     19  16  88 CALM      30.12R
$$

NDZ004>008-012>016-024-026-027-054-310900-
NORTHEAST NORTH DAKOTA

CITY           SKY/WX    TMP DP  RH WIND       PRES   REMARKS
GRAND FORKS    CLOUDY    17  11  77 N21G28    30.25S WCI   0
GRND FRKS AFB  FLURRIES  16  10  76 N16       30.26R WCI   0
DEVILS LAKE    CLOUDY    16  10  79 NE17      30.22S WCI   0
$$

NDZ022-023-025-028>030-036>039-047>053-310900-
SOUTHEAST NORTH DAKOTA

CITY           SKY/WX    TMP DP  RH WIND       PRES   REMARKS
FARGO          CLOUDY    21  15  78 N18       30.21R WCI   6
JAMESTOWN      CLOUDY    22  17  81 N15       30.18S WCI   9
$$



USA.gov is the U.S. government's official web portal to all federal, state and local government web resources and services.